TimeSAST,TemperatureF,Dew PointF,Humidity,Sea Level PressureIn,VisibilityMPH,Wind Direction,Wind SpeedMPH,Gust SpeedMPH,PrecipitationIn,Events,Conditions,WindDirDegrees,DateUTC
12:00 AM,66.2,60.8,83,29.86,-9999.0,WNW,3.5,-,N/A,,Clear,300,2013-02-01 22:00:00
2:00 AM,67,65,91,29.87,0,West,4.6,,,,,280,2013-02-02 00:00:00
5:00 AM,64,63,94,29.86,3,West,10.4,,,,Mist,280,2013-02-02 03:00:00
5:00 AM,64.4,62.6,94,29.86,-9999.0,West,9.2,-,N/A,,Mostly Cloudy,280,2013-02-02 03:00:00
6:00 AM,64.4,60.8,88,29.86,6.2,WNW,11.5,-,N/A,,Mostly Cloudy,290,2013-02-02 04:00:00
7:00 AM,64.4,62.6,94,29.86,6.2,NW,8.1,-,N/A,,Mostly Cloudy,310,2013-02-02 05:00:00
8:00 AM,69,64,78,29.88,12,WNW,10.4,,,,Partly Cloudy,290,2013-02-02 06:00:00
8:00 AM,68.0,64.4,88,29.86,6.2,WNW,10.4,-,N/A,,Scattered Clouds,290,2013-02-02 06:00:00
9:00 AM,71.6,64.4,78,29.86,6.2,West,9.2,-,N/A,,Mostly Cloudy,270,2013-02-02 07:00:00
10:00 AM,75.2,64.4,69,29.86,6.2,West,9.2,-,N/A,,Scattered Clouds,260,2013-02-02 08:00:00
11:00 AM,78,65,56,29.86,12,SSW,10.4,,,,Scattered Clouds,210,2013-02-02 09:00:00
11:00 AM,78.8,66.2,65,29.83,6.2,SSW,10.4,-,N/A,,Partly Cloudy,210,2013-02-02 09:00:00
12:00 PM,77.0,64.4,65,29.83,6.2,SSW,10.4,-,N/A,,Partly Cloudy,210,2013-02-02 10:00:00
1:00 PM,77.0,66.2,69,29.80,6.2,SSW,13.8,-,N/A,,Partly Cloudy,200,2013-02-02 11:00:00
2:00 PM,76,67,66,29.80,12,SSW,11.5,,,,Partly Cloudy,200,2013-02-02 12:00:00
2:00 PM,77.0,68.0,74,29.80,6.2,SSW,11.5,-,N/A,,Scattered Clouds,200,2013-02-02 12:00:00
3:00 PM,75.2,68.0,78,29.80,6.2,SW,9.2,-,N/A,,Scattered Clouds,220,2013-02-02 13:00:00
4:00 PM,73.4,68.0,83,29.80,6.2,SSW,10.4,-,N/A,,Mostly Cloudy,210,2013-02-02 14:00:00
5:00 PM,73,67,77,29.79,6,SSW,9.2,,,,Haze,210,2013-02-02 15:00:00
5:00 PM,73.4,68.0,83,29.80,6.2,SSW,9.2,-,N/A,,Mostly Cloudy,210,2013-02-02 15:00:00
6:00 PM,73.4,66.2,78,29.80,6.2,SSW,6.9,-,N/A,,Mostly Cloudy,210,2013-02-02 16:00:00
7:00 PM,71.6,68.0,88,29.80,6.2,SSW,6.9,-,N/A,,Mostly Cloudy,200,2013-02-02 17:00:00
8:00 PM,71,68,86,29.81,12,SW,5.8,,,,Overcast,230,2013-02-02 18:00:00
8:00 PM,71.6,68.0,88,29.83,6.2,SW,5.8,-,N/A,,Mostly Cloudy,230,2013-02-02 18:00:00
9:00 PM,71.6,68.0,88,29.83,6.2,WSW,5.8,-,N/A,,Mostly Cloudy,250,2013-02-02 19:00:00
10:00 PM,69.8,68.0,94,29.83,6.2,WSW,6.9,-,N/A,,Mostly Cloudy,240,2013-02-02 20:00:00
11:00 PM,69.8,68.0,94,29.83,5.6,West,4.6,-,N/A,,Mostly Cloudy,260,2013-02-02 21:00:00